Home   Weather   Reynosa   Past weeks
Flag for Mexico

Past Weather in Reynosa, Tamaulipas, Mexico — Yesterday and Last 2 Weeks

Now
81 °F

Overcast.


Feels Like: 87 °F
Forecast: 95 / 79 °F
Wind: 8 mph from Southeast

Location: Miller International Airport

Current Time: May 19, 2019 at 2:00:46 am

Latest Report: May 19, 2019 at 12:53 am


Visibility: 5 mi

Pressure: 29.70 "Hg

Humidity: 85%

Dew Point: 76 °F

Location of ReynosaLocation

Past Weather in Reynosa — Graph

°F

Reynosa Temperature Yesterday

Maximum temperature yesterday: 94 °F (at 2:53 pm)
Minimum temperature yesterday: 80 °F (at 1:53 am)
Average temperature yesterday: 85 °F

High & Low Weather Summary for the Past Weeks

 TemperatureHumidityPressure
High100 °F (May 8, 3:53 pm)93% (May 11, 3:53 am)29.99 "Hg (May 11, 3:53 am)
Low67 °F (May 11, 7:53 am)41% (May 5, 2:53 pm)29.54 "Hg (May 8, 4:53 pm)
Average80 °F75%29.82 "Hg
* Reported May 4 12:53 am — May 19 12:53 am, Reynosa. Weather by CustomWeather, © 2019

Note: Actual official high and low records may vary slightly from our data, if they occured in-between our weather recording intervals... More about our weather records

Advertising

Reynosa Weather History for the Previous 24 Hours

Scroll right to see more
 ConditionsComfort  
Time TempWeatherWind HumidityBarometerVisibility
12:53 am
Sun, May 19
81 °FOvercast.8 mph85%29.70 "Hg5 mi
11:53 pm
Sat, May 18
82 °FOvercast.10 mph82%29.71 "Hg6 mi
10:53 pm83 °FOvercast.10 mph79%29.69 "Hg7 mi
9:53 pm83 °FOvercast.13 mph82%29.67 "Hg7 mi
8:53 pm84 °FOvercast.20 mph80%29.63 "Hg7 mi
8:30 pm85 °FPassing clouds.14 mph77%29.62 "Hg7 mi
7:53 pm87 °FSunny.16 mph69%29.60 "Hg7 mi
6:53 pm90 °FSunny.20 mph63%29.58 "Hg7 mi
5:53 pm92 °FSunny.20 mph62%29.58 "Hg6 mi
4:53 pm93 °FScattered clouds.18 mph62%29.58 "Hg6 mi
3:53 pm94 °FBroken clouds.20 mph62%29.60 "Hg6 mi
2:53 pm94 °FHaze.17 mph62%29.61 "Hg6 mi
1:53 pm93 °FScattered clouds.16 mph60%29.64 "Hg6 mi
12:53 pm91 °FBroken clouds.14 mph64%29.66 "Hg6 mi
12:14 pm90 °FBroken clouds.18 mph63%29.66 "Hg6 mi
11:53 am89 °FMostly cloudy.18 mph65%29.67 "Hg6 mi
11:09 am87 °FMostly cloudy.16 mph67%29.69 "Hg7 mi
10:53 am88 °FCloudy.15 mph67%29.68 "Hg7 mi
9:53 am84 °FMostly cloudy.18 mph74%29.70 "Hg6 mi
8:53 am82 °FMore clouds than sun.13 mph79%29.70 "Hg7 mi
8:25 am81 °FMostly cloudy.12 mph82%29.70 "Hg7 mi
7:53 am81 °FOvercast.16 mph85%29.68 "Hg7 mi
7:16 am80 °FFog.15 mph87%29.66 "Hg6 mi
7:04 am80 °FFog.18 mph87%29.66 "Hg6 mi
6:53 am80 °FMostly cloudy.16 mph85%29.66 "Hg7 mi
5:58 am80 °FOvercast.18 mph87%29.67 "Hg8 mi
4:53 am81 °FOvercast.17 mph85%29.68 "Hg9 mi
3:53 am81 °FMostly cloudy.16 mph85%29.70 "Hg9 mi
2:53 am80 °FOvercast.14 mph87%29.70 "Hg9 mi
Weather by CustomWeather, © 2019

See weather overview